Location: Karlsruhe
(49.0131°N, 8.3874°E)
Time: 19:11:32
(UTC+01:00)

ISS - Pass Details

Date: 12 January 2018
Orbit: 402 x 407 km, 51.6° (Epoch: 17 January)

Event Time Altitude Azimuth Distance (km) Brightness Sun altitude
Exits shadow 06:24:08 50° 236° (SW) 527 -3.6 -17.9°
Maximum altitude 06:24:29 53° 208° (SSW) 504 -3.5 -17.8°
Drops below altitude 10° 06:27:42 10° 130° (SE) 1,463 0.0 -17.3°
Sets 06:29:48 0° 126° (SE) 2,321 1.3 -16.9°
